FLOCK 3K-5 (43899 NORAD) Tracking and Keplerian Element Data

This shows tracking and keplerian element data for the satellite.

Feedback or suggestion? Click here.




ElementValue
Catalog43899
NameFLOCK 3K-5
Epoch Orbit458
Epoch Day26.1625734
Epoch Year2019
RAAN295.2482
Inclination97.2998
Eccentricity0.0023892
Argument of Perigee135.7659
Mean Anonmoly224.5494
Mean Motion15.23600149
Decay Rate1.725E-05
L11 43899U 18111Z 19026.16257340 .00001725 00000-0 74461-4 0 9992
L22 43899 97.2998 295.2482 0023892 135.7659 224.5494 15.23600149 4589

Live tracking and technical data element details for FLOCK 3K-5 (NORAD 43899). FLOCK 3K-5 can be tracked NOW for your location showing map with azimuth and elevation plus other details from your city location.

Track the satellite on the map from your city or location and see movement details for azimuth, elevation, latitude, longitude, range, height, and movement on the map or in text.







IsCatalogInMostPopularTable: catalog: 43899, numindb: 84
Update: records affected: 1



GetName: 43899 FLOCK 3K-5

Hit Count: updated at: Thu, 23 May 2019 15:58:09 GMT